Preview of NWS' New Version of Forecast
This preview is not operational and should not be used for support decisions.
Latest weather observations around

Emporia, Emporia Municipal Airport (KEMP)

Using International System of Units (Switch to English Units)
Date/ Time (CST) Wind (kph) Vis. (km) Weather Sky Cond. Temp (°C) Rel. Humidity Wind Chill (°C) Heat Index (°C) Pressure Precip. (cm)
Air Dwpt 6 hour Altimeter (hPa) Sea level (hPa) 1 hr 3 hr 6 hr
Max Min
Feb 22 01:53 ENE 13 9.66 Fog/Mist CLR -3 -4     92% -7   1021.3 1022.5      
Feb 22 00:53 ENE 17 11.27 Mostly Clear FEW095 -2 -4     85% -7   1021 1022.2      
Feb 21 23:53 ENE 5 11.27 Mostly Cloudy BKN100 -2 -4     88% -4   1021.3 1022.5      
Feb 21 22:53 ENE 11 12.87 Cloudy OVC100 0 -3     78% -4   1020.7 1021.9      
Feb 21 21:53 E 18 14.48 Cloudy OVC110 0 -3     78% -5   1020 1021.1      
Feb 21 20:53 E 22 14.48 Partly Cloudy SCT100 0 -3     81% -6   1019 1020.4      
Feb 21 19:53 E 17 14.48 Clear CLR 0 -3     81% -5   1019.3 1020.8      
Feb 21 18:53 E 15 16.09 Clear CLR 1 -2     79% -3   1019 1020.5      
Feb 21 17:53 E 13 16.09 Clear CLR 3 -2     70% -1   1018.6 1020.1      
Feb 21 16:53 E 22 16.09 Clear CLR 6 -2     59% 2   1018.6 1020.1      
Feb 21 15:53 ESE 28 16.09 Clear CLR 7 -3     51% 2   1018.6 1019.9      
Feb 21 14:53 ESE 24 16.09 Clear CLR 6 -3     53% 2   1018.6 1020      
Feb 21 13:53 ESE 22 16.09 Mostly Clear FEW110 6 -3     53% 2   1019 1020.1      
Feb 21 12:53 ESE 28 16.09 Partly Cloudy SCT110 6 -4     49% 1   1019.3 1020.6      
Feb 21 11:53 E 22 16.09 Clear CLR 6 -4     50% 2   1019.7 1020.7      
Feb 21 10:53 E 15 11.27 Clear CLR 3 -3     64% 0   1020 1021.2      
Feb 21 09:53 ESE 11 6.44 Fog/Mist CLR 1 -1     88% -3   1020.3 1021.8      
Feb 21 09:02 E 5 4.83 Fog/Mist CLR -2 -3     92% -4   1020.7        
Feb 21 08:53 E 8 4.02 Fog/Mist CLR -2 -3     92% -5   1020.3 1022      
Feb 21 07:53 ESE 8 4.02 Fog/Mist CLR -5 -5     100% -8   1020.3 1021.9      
Feb 21 07:23 Calm 4.02 Fog/Mist CLR -6 -6     100%     1019.7        
Feb 21 06:53 SE 9 4.83 Fog/Mist CLR -6 -6     96% -10   1019 1020.7      
Feb 21 05:53 ESE 9 4.83 Fog/Mist CLR -7 -7     100% -11   1018.3 1019.8      
Feb 21 04:53 E 5 4.83 Fog/Mist CLR -7 -7     96% -9   1018 1019.3      
Feb 21 03:53 Calm 4.83 Clear   -7 -8     92%     1017.6 1019      
Feb 21 02:53 Calm 4.83 Fog/Mist CLR -7 -8     95%     1017.3 1018.7      
Feb 21 02:16 S 13 4.83 Fog/Mist CLR -7 -7     96% -12   1017.6        
Feb 21 01:53 S 9 4.02 Fog/Mist CLR -7 -7     96% -11   1017.6 1018.9      
Feb 21 01:46 S 5 4.83 Fog/Mist CLR -7 -7     100% -9   1017.6        
Feb 21 01:30 Calm 4.02 Fog/Mist CLR -6 -7     96%     1017.3        
Feb 21 00:53 Calm 4.83 Fog/Mist CLR -6 -6     100%     1016.9 1018.5      
Feb 20 23:53 S 11 4.83 Fog/Mist CLR -5 -5     100% -10   1016.9 1018.4      
Feb 20 22:53 SSE 8 6.44 Fog/Mist CLR -4 -5     92% -7   1016.3 1017.8      
Feb 20 21:53 SSW 18 6.44 Fog/Mist CLR -3 -4     92% -8   1015.9 1017.2      
Feb 20 20:53 SW 18 8.05 Clear   -3 -4     92% -8   1014.9 1016.3      
Feb 20 19:53 SW 15 9.66 Fog/Mist CLR -3 -4     89% -8   1014.2 1015.5      
Feb 20 18:53 SW 15 9.66 Fog/Mist CLR -2 -4     88% -7   1013.2 1014.6      
Feb 20 17:53 WSW 11 9.66 Haze CLR 1 -3     78% -3   1012.5 1013.7      
Feb 20 16:53 WSW 17 11.27 Clear CLR 3 -3     64% -1   1011.5 1012.9      
Feb 20 15:53 WSW 22 11.27 Mostly Clear FEW029 3 -3     67% -2   1011.2 1012.4      
Feb 20 14:53 WSW 22 11.27 Clear CLR 3 -3     64% -2   1010.5 1011.7      
Feb 20 13:53 W 21 11.27 Clear CLR 2 -3     70% -3   1009.8 1011.1      
Feb 20 12:53 W 17 9.66 Haze SCT019 2 -3     72% -3   1009.8 1010.9      
Feb 20 12:26 W 24 9.66 Haze BKN019 BKN037 1 -3     78% -5   1010.2        
Feb 20 11:53 WSW 22 9.66 Haze FEW042 SCT055 1 -3     78% -5   1009.5 1010.9      
Feb 20 10:53 WSW 21 9.66 Haze FEW014 OVC042 0 -3     78% -5   1009.8 1011.3      
Feb 20 09:53 WSW 28 8.05 Fog/Mist FEW013 OVC055 -1 -3     88% -8   1009.5 1011      
Feb 20 09:26 SW 24 8.05 Fog/Mist SCT014 OVC055 -1 -3     88% -7   1009.5        
Feb 20 08:53 SW 18 8.05 Fog/Mist OVC013 -2 -3     92% -7   1008.8 1010.2      
Feb 20 08:07 SW 21 8.05 Fog/Mist OVC011 -2 -3     92% -7   1008.1        
Feb 20 07:53 SW 17 6.44 Fog/Mist BKN009 OVC014 -2 -2     96% -7   1007.8 1009.3      
Feb 20 06:53 SSW 15 9.66 Fog/Mist OVC006 -2 -3     96% -7   1007.8 1009.2      
Feb 20 06:26 SSW 13 11.27 Cloudy OVC009 -2 -3     96% -7   1007.8        
Feb 20 05:53 SSW 9 11.27 Cloudy OVC012 -3 -3     100% -6   1008.1 1009.6     0
Feb 20 05:30 SW 11 9.66 Fog/Mist BKN010 OVC016 -3 -3     100% -7   1008.1        
Feb 20 05:15 SSW 9 9.66 Fog/Mist BKN016 BKN038 OVC060 -3 -3     100% -6   1007.8        
Feb 20 04:53 S 9 9.66 Fog/Mist OVC038 -3 -3     100% -6   1007.8 1009.3      
Feb 20 04:16 S 9 8.05 Fog/Mist SCT026 OVC036 -3 -3     100% -6   1008.8        
Feb 20 03:53 S 8 4.83 Fog/Mist FEW017 OVC026 -3 -3     100% -6   1008.8 1010.1 0    
Feb 20 03:32 S 5 3.22 Light Snow and Fog/Mist OVC016 -3 -3     100% -5   1009.2   0    
Feb 20 03:18 S 5 4.02 Fog/Mist BKN012 OVC017 -3 -3     100% -5   1009.2   0    
Feb 20 03:07 S 5 2.41 Light Snow and Fog/Mist FEW004 OVC012 -3 -3     100% -5   1009.5   0    
Feb 20 02:53 S 8 1.61 Light Snow and Fog/Mist SCT004 OVC013 -3 -3     100% -6   1009.8 1011.1 0 0  
Feb 20 02:43 SSE 8 1.61 Light Snow and Fog/Mist OVC004 -3 -3     100% -6   1009.5   0    
Feb 20 02:37 S 8 2.01 Light Snow and Fog/Mist OVC003 -3 -3     100% -6   1009.8   0    
Feb 20 02:18 SSE 5 3.22 Fog/Mist OVC003 -3 -3     100% -5   1010.2        
Feb 20 01:53 SE 5 2.41 Fog/Mist OVC003 -3 -3     100% -5   1010.2 1011.6      
Feb 20 01:37 ESE 9 2.41 Fog/Mist OVC003 -3 -3     100% -7   1010.2        
Feb 20 01:12 E 9 2.82 Fog/Mist OVC004 -3 -3     100% -7   1010.8        
Feb 20 00:53 ESE 13 3.22 Fog/Mist OVC005 -3 -3     100% -8   1011.2 1012.7      
Feb 19 23:53 E 18 3.22 Fog/Mist BKN006 BKN010 OVC022 -3 -3     100% -9   1012.2 1013.6     0
Feb 19 23:31 E 18 4.02 Fog/Mist FEW006 FEW011 OVC024 -3 -4     96% -9   1012.9        
Feb 19 23:15 E 21 6.44 Fog/Mist SCT009 OVC025 -3 -4     96% -9   1012.9        
Feb 19 22:53 E 18 4.83 Fog/Mist OVC009 -3 -4     96% -9   1013.2 1014.7 0    
Feb 19 22:26 E 22 3.22 Clear   -3 -4     96% -10   1013.2   0    
Feb 19 22:16 E 18 2.41 Clear   -4 -4     100% -10   1013.6   0    
Feb 19 22:08 E 24 1.61 Clear   -3 -4     96% -10   1012.9   0    
Feb 19 21:51 ENE 24 1.21 Clear   -3 -4     96% -10   1013.9 1015.5 0    
Feb 19 21:50 ENE 22 1.21 Clear   -3 -4     93% -9   1013.9   0    
Feb 19 21:37 E 18 1.61 Light Snow and Fog/Mist VV013 -3 -4     96% -9   1014.6   0    
Feb 19 21:19 E 17 0.8 Snow and Fog VV009 -3 -4     96% -9   1015.2   0    
Feb 19 20:53 E 18 1.21 Light Snow and Fog/Mist VV011 -3 -4     96% -9   1015.6 1017.3 0 0  
Feb 19 20:26 E 18 0.8 Light Snow and Fog VV009 -3 -4     96% -9   1015.9   0    
Feb 19 19:53 ENE 13 1.21 Light Snow and Fog/Mist VV013 -3 -3     100% -8   1016.9 1018.8 0    
Feb 19 19:30 ENE 11 1.21 Light Snow and Fog/Mist VV012 -3 -3     100% -8   1017.3   0    
Feb 19 18:53 ENE 18 0.8 Snow and Fog VV008 -3 -4     96% -9   1016.9 1018.8 0    
Feb 19 18:42 ENE 17 0.8 Snow and Fog VV008 -3 -4     96% -9   1017.3   0    
Feb 19 18:13 ENE 21 1.21 Light Snow and Fog/Mist FEW006 OVC014 -3 -4     96% -9   1018   0    
Feb 19 17:53 ENE 21 1.21 Light Snow and Fog/Mist BKN017 OVC028 -3 -4     92% -9   1018 1019.8 0   0
Feb 19 17:40 E 24 1.61 Light Snow and Fog/Mist SCT021 OVC028 -3 -4     89% -9   1018.3   0    
Feb 19 17:12 ENE 21 1.21 Light Snow BKN024 OVC034 -2 -5     81% -8   1018.3   0    
Feb 19 17:07 ENE 26 2.01 Light Snow BKN028 OVC034 -2 -5     78% -8   1018.3   0    
Feb 19 17:02 ENE 22 2.82 Light Snow BKN032 BKN050 OVC070 -2 -5     78% -8   1018.6   0    
Feb 19 16:53 E 24 11.27 Cloudy BKN039 BKN055 OVC090 -2 -6     75% -8   1019.3 1020.8      
Feb 19 15:53 E 22 11.27 Cloudy OVC100 -1 -6     71% -7   1020 1021.7      
Feb 19 14:53 E 24 12.87 Cloudy OVC100 -1 -6     71% -7   1021 1022.5      
Feb 19 13:53 E 24 12.87 Cloudy OVC090 -1 -6     69% -7   1020.7 1022.1      
Feb 19 12:53 E 28 12.87 Cloudy OVC100 -2 -6     72% -8   1022.4 1024.1      
Feb 19 11:53 E 28 11.27 Cloudy BKN090 OVC110 -2 -6     75% -9   1024.7 1026.6      
Feb 19 10:53 E 26 11.27 Cloudy BKN100 OVC120 -3 -6     78% -10   1026.4 1028.3      
Feb 19 09:53 E 32 11.27 Partly Cloudy and Windy SCT120 -4 -7     81% -12   1027.8 1029.5      
Feb 19 08:53 E 21 9.66 Haze FEW120 -4 -7     81% -11   1028.8 1030.6      
Feb 19 07:53 ENE 22 8.05 Fog/Mist CLR -6 -8     84% -13   1029.1 1030.9      
Feb 19 06:53 ENE 15 9.66 Fog/Mist CLR -6 -8     88% -12   1029.8 1031.6      
Feb 19 05:53 ENE 17 11.27 Clear   -6 -8     84% -12   1029.8 1031.8      
Feb 19 04:53 ENE 18 11.27 Clear CLR -7 -8     88% -13   1029.8 1031.8      
Feb 19 03:53 E 15 11.27 Mostly Cloudy BKN120 -6 -8     84% -12   1030.1 1032.2      
Feb 19 02:53 ENE 15 11.27 Cloudy OVC120 -6 -8     84% -12   1031.2 1033      
Feb 19 01:53 ENE 17 9.66 Fog/Mist SCT120 -6 -8     84% -12   1031.5 1033.2      
May 15 08:14 Calm 16.09 Cloudy FEW017 OVC036 18 17     93%     1015.9        
May 15 05:53 W 5 16.09 Mostly Cloudy BKN046 17 16     96%     1013.9 1013.4      
May 15 01:53 Calm 16.09 Light Rain SCT050 SCT070 BKN095 18 16     90%     1013.9 1012.9 0    
May 14 18:32   2.82 Rain and Fog/Mist FEW050 BKN060 OVC090 21 18     87%     1009.8   0    
May 13 13:53 S 30 16.09 Clear CLR 31 21     55%   33 1012.9 1011.7      
May 13 06:53 S 22 16.09 Clear CLR 19 17     87%     1013.9 1012.8      
May 12 13:53 S 30 16.09 Cloudy OVC048 28 18     56%   29 1010.8 1009.7      
May 12 02:53 S 28 16.09 Clear CLR 22 16     68%   22 1009.2 1008.1      
Jun 12 07:53   16.09 Clear CLR 22 19     84%   23 1011.5 1010.3      
Jun 12 01:53 S 26 16.09 Clear CLR 23 19     79%   23 1010.8 1009.5      
Jun 11 11:53   16.09 Clear CLR 29 19     57%   30 1009.5 1008.2      
Jun 10 23:53 SSE 28 16.09 Clear CLR 23 19     79%   24 1008.8 1007.7      
Jun 10 21:53 SSE 28 16.09 Clear   25 21     77%   26 1007.8 1006.9      
Jun 10 12:53 S 35 16.09 Mostly Clear and Windy FEW028 28 21     65%   30 1008.1 1007.1      
Jun 10 09:20 S 35 16.09 Partly Cloudy and Windy SCT018 23 18     73%   23 1009.2        
Jun 10 07:53 S 33 16.09 Mostly Cloudy and Windy BKN022 20 17     81%     1009.5 1008.6      
Jun 08 21:53 S 11 16.09 Clear CLR 18 13     70%     1012.9 1012.3      
Jun 08 18:53 SSE 9 16.09 Clear CLR 26 11     39%   25 1013.2 1012.5      
Jun 08 09:53 S 9 16.09 Clear CLR 23 10     44%   22 1018.3 1017.6      
Jun 08 07:53 Calm 16.09 Clear CLR 16 13     86%     1018.3 1017.7      
Jun 06 02:53 E 9 16.09 Clear CLR 20 17     81%     1013.6 1012.3